Pagosa Springs, CO

11:25 AM MST on November 18, 2017 (GMT -0700)
Pagosa Springs

Weather History for KPSO - December, 2013

Change the Weather History Date:

Thursday, December 5, 2013

  Actual Average (KE33) Record (KE33)
Temperature  
Mean Temperature 12 °F -  
Max Temperature 23 °F 35 °F 48 °F (2006)
Min Temperature 1 °F 19 °F 0 °F (2005)
Degree Days  
Heating Degree Days 53    
Moisture  
Dew Point 7 °F    
Average Humidity 81    
Maximum Humidity 95    
Minimum Humidity 50    
Precipitation  
Precipitation 0.00 in - - ()
Sea Level Pressure  
Sea Level Pressure 29.81 in    
Wind  
Wind Speed 2 mph (SW)    
Max Wind Speed 12 mph    
Max Gust Speed 17 mph    
Visibility 10 miles    
Events Snow , Thunderstorm    
Averages and records for this station are not official NWS values.
T = Trace of Precipitation, MM = Missing Value Source: NWS Daily Summary

Daily Weather History Graph

Daily Weather History Graph

Search for Another Location

Airport or City:

Trip Planner

Search our weather history database for the weather conditions in past years. The results will help you decide how hot, cold, wet, or windy it might be!

Date:

Astronomy

Dec. 05, 2013 Rise Set
Actual Time 7:07 AM MST 4:50 PM MST
Civil Twilight 6:38 AM MST 5:19 PM MST
Nautical Twilight 6:06 AM MST 5:51 PM MST
Astronomical Twilight 5:34 AM MST 6:23 PM MST
Moon 9:31 AM MST (12/5) 8:12 PM MST (12/5)
Length of Visible Light 10h 40m
Length of Day
9h 42m
Waxing Crescent, 11% of the Moon is Illuminated
Dec 5
Waxing Crescent
Dec 9
First Quarter
Dec 17
Full
Dec 25
Last Quarter
Jan 1
New

Hourly Weather History & Observations

Time (MST) Temp. Windchill Dew Point Humidity Pressure Visibility Wind Dir Wind Speed Gust Speed Precip Events Conditions
12:15 AM 7.0 °F 0.1 °F 4.6 °F 90% 29.85 in 10.0 mi North 3.5 mph - N/A   Clear
12:35 AM 8.1 °F - 5.9 °F 91% 29.83 in 10.0 mi Calm Calm - N/A   Clear
12:55 AM 9.5 °F - 6.3 °F 87% 29.82 in 10.0 mi Calm Calm - N/A   Clear
1:15 AM 9.0 °F - 7.0 °F 92% 29.82 in 10.0 mi Calm Calm - N/A   Clear
1:35 AM 6.1 °F - 3.6 °F 89% 29.82 in 10.0 mi Calm Calm - N/A   Clear
1:55 AM 7.3 °F - 5.4 °F 92% 29.83 in 10.0 mi Calm Calm - N/A   Clear
2:15 AM 6.1 °F - 3.4 °F 89% 29.82 in 10.0 mi Calm Calm - N/A   Clear
2:35 AM 4.5 °F - 0.9 °F 85% 29.83 in 10.0 mi Calm Calm - N/A   Clear
2:55 AM 6.1 °F - 4.1 °F 92% 29.82 in 10.0 mi Calm Calm - N/A   Clear
3:15 AM 5.2 °F - 1.8 °F 86% 29.82 in 10.0 mi Calm Calm - N/A   Clear
3:35 AM 5.0 °F - 1.4 °F 85% 29.82 in 10.0 mi Calm Calm - N/A   Clear
3:55 AM 5.7 °F - 3.6 °F 91% 29.81 in 10.0 mi Calm Calm - N/A   Clear
4:15 AM 4.3 °F -2.9 °F 0.9 °F 86% 29.82 in 10.0 mi NW 3.5 mph - N/A   Clear
4:35 AM 5.5 °F - 3.0 °F 89% 29.82 in 10.0 mi Calm Calm - N/A   Clear
4:55 AM 3.9 °F - 0.3 °F 85% 29.83 in 10.0 mi Calm Calm - N/A   Clear
5:15 AM 1.9 °F - -2.2 °F 83% 29.83 in 10.0 mi Calm Calm - N/A   Clear
5:35 AM 1.2 °F - -3.3 °F 81% 29.83 in 10.0 mi Calm Calm - N/A   Clear
5:55 AM 4.3 °F - 0.9 °F 86% 29.83 in 10.0 mi Calm Calm - N/A   Clear
6:15 AM 2.1 °F - -2.0 °F 83% 29.83 in 5.0 mi Calm Calm - N/A Snow Light Snow
6:35 AM 3.2 °F - -0.9 °F 83% 29.83 in 10.0 mi Calm Calm - N/A   Clear
6:55 AM 1.0 °F - -3.6 °F 81% 29.83 in 10.0 mi Calm Calm - N/A Thunderstorm Clear
7:15 AM 2.7 °F - -0.9 °F 85% 29.84 in 10.0 mi Calm Calm - N/A   Mostly Cloudy
7:35 AM 4.5 °F - 1.6 °F 88% 29.84 in 10.0 mi Calm Calm - N/A   Overcast
7:55 AM 4.3 °F - 1.2 °F 87% 29.85 in 10.0 mi Calm Calm - N/A   Overcast
8:15 AM 7.5 °F - 4.5 °F 87% 29.85 in 10.0 mi Calm Calm - N/A   Overcast
8:35 AM 9.3 °F - 6.4 °F 88% 29.86 in 10.0 mi Calm Calm - N/A   Overcast
8:55 AM 10.2 °F - 7.0 °F 87% 29.85 in 10.0 mi Calm Calm - N/A   Overcast
9:15 AM 11.5 °F - 9.3 °F 91% 29.85 in 10.0 mi Calm Calm - N/A   Overcast
9:35 AM 14.0 °F - 11.7 °F 90% 29.85 in 10.0 mi Calm Calm - N/A   Overcast
9:55 AM 14.4 °F - 10.4 °F 84% 29.84 in 10.0 mi Calm Calm - N/A   Overcast
10:15 AM 16.5 °F - 9.3 °F 73% 29.84 in 10.0 mi Calm Calm - N/A   Mostly Cloudy
10:35 AM 15.8 °F - 8.6 °F 73% 29.84 in 10.0 mi Calm Calm - N/A   Scattered Clouds
10:55 AM 17.1 °F - 9.5 °F 72% 29.82 in 10.0 mi Calm Calm - N/A Thunderstorm Thunderstorm
11:15 AM 19.6 °F - 7.3 °F 59% 29.82 in 10.0 mi Calm Calm - N/A   Clear
11:35 AM 20.3 °F 13.8 °F 6.3 °F 55% 29.80 in 10.0 mi SSW 4.6 mph - N/A   Scattered Clouds
11:55 AM 20.3 °F 10.6 °F 5.9 °F 54% 29.79 in 10.0 mi SSW 8.1 mph - N/A   Scattered Clouds
12:15 PM 21.0 °F 9.9 °F 6.4 °F 53% 29.78 in 10.0 mi South 10.4 mph - N/A   Overcast
12:35 PM 20.8 °F 9.0 °F 7.3 °F 56% 29.77 in 10.0 mi SSW 11.5 mph - N/A   Overcast
12:55 PM 21.4 °F 9.7 °F 7.3 °F 55% 29.76 in 10.0 mi South 11.5 mph - N/A   Mostly Cloudy
1:15 PM 21.2 °F 12.6 °F 7.3 °F 55% 29.76 in 10.0 mi SSW 6.9 mph 17.3 mph N/A   Mostly Cloudy
1:35 PM 22.6 °F 12.6 °F 7.3 °F 52% 29.75 in 10.0 mi SW 9.2 mph - N/A   Scattered Clouds
1:55 PM 23.0 °F 12.4 °F 6.8 °F 50% 29.75 in 10.0 mi WSW 10.4 mph 17.3 mph N/A   Scattered Clouds
2:15 PM 22.1 °F 12.0 °F 8.4 °F 56% 29.75 in 10.0 mi SW 9.2 mph - N/A   Mostly Cloudy
2:35 PM 21.9 °F 12.5 °F 10.0 °F 60% 29.76 in 7.0 mi WSW 8.1 mph 16.1 mph N/A   Overcast
2:55 PM 20.8 °F 11.2 °F 11.5 °F 67% 29.76 in 3.0 mi WSW 8.1 mph - N/A Snow Light Snow
3:15 PM 20.7 °F 13.0 °F 11.1 °F 67% 29.76 in 10.0 mi WSW 5.8 mph - N/A   Overcast
3:35 PM 21.2 °F 12.6 °F 10.9 °F 65% 29.78 in 10.0 mi SW 6.9 mph - N/A   Overcast
3:55 PM 21.0 °F 13.4 °F 11.3 °F 66% 29.78 in 10.0 mi SW 5.8 mph - N/A   Mostly Cloudy
4:15 PM 20.3 °F 15.4 °F 11.3 °F 68% 29.78 in 10.0 mi SW 3.5 mph - N/A   Clear
4:35 PM 17.8 °F 10.9 °F 10.4 °F 73% 29.78 in 10.0 mi South 4.6 mph - N/A Snow Light Snow
4:55 PM 18.3 °F 13.1 °F 11.5 °F 75% 29.78 in 10.0 mi SSE 3.5 mph - N/A   Scattered Clouds
5:15 PM 14.7 °F - 10.4 °F 83% 29.78 in 10.0 mi Calm Calm - N/A   Mostly Cloudy
5:35 PM 19.2 °F 10.2 °F 14.0 °F 80% 29.78 in 5.0 mi SW 6.9 mph - N/A Snow Light Snow
5:55 PM 18.0 °F 9.8 °F 13.6 °F 83% 29.80 in 7.0 mi SSW 5.8 mph - N/A Snow Light Snow
6:15 PM 17.2 °F 11.9 °F 15.3 °F 92% 29.80 in 10.0 mi SW 3.5 mph - N/A   Scattered Clouds
6:35 PM 13.8 °F - 12.0 °F 93% 29.80 in 10.0 mi Calm Calm - N/A   Mostly Cloudy
6:55 PM 11.5 °F - 10.0 °F 94% 29.81 in 10.0 mi Calm Calm - N/A   Overcast
7:15 PM 13.5 °F - 12.0 °F 94% 29.81 in 7.0 mi Calm Calm - N/A   Overcast
7:35 PM 16.0 °F - 14.9 °F 95% 29.82 in 7.0 mi Calm Calm - N/A Snow Light Snow
7:55 PM 15.6 °F - 14.4 °F 95% 29.83 in 7.0 mi Calm Calm - N/A Snow Light Snow
8:15 PM 15.8 °F - 14.4 °F 94% 29.82 in 10.0 mi Calm Calm - N/A   Overcast
8:35 PM 14.5 °F - 12.9 °F 93% 29.83 in 10.0 mi Calm Calm - N/A   Overcast
8:55 PM 11.8 °F - 9.0 °F 88% 29.83 in 10.0 mi Calm Calm - N/A   Overcast
9:15 PM 12.9 °F - 11.1 °F 93% 29.83 in 10.0 mi Calm Calm - N/A   Overcast
9:35 PM 13.5 °F - 11.5 °F 92% 29.84 in 10.0 mi Calm Calm - N/A   Overcast
9:55 PM 14.0 °F - 12.0 °F 92% 29.85 in 10.0 mi Calm Calm - N/A   Overcast
10:15 PM 12.9 °F - 10.6 °F 90% 29.85 in 10.0 mi Calm Calm - N/A   Overcast
10:35 PM 11.7 °F - 9.7 °F 92% 29.85 in 10.0 mi Calm Calm - N/A   Scattered Clouds
10:55 PM 10.6 °F - 8.8 °F 92% 29.85 in 10.0 mi Calm Calm - N/A   Clear
11:15 PM 9.7 °F - 8.2 °F 94% 29.86 in 10.0 mi Calm Calm - N/A   Scattered Clouds